Lid_Strength_Index
13 12 12 12 12 11 13 12 16 14 13 11 10 9 8 7 8 8 7 7 6 7 7 7 7 7 6 6 5 6 6 6 6 6 5 5 6 5 5 4 4 4 3 1
14 12 12 13 11 11 11 11 12 12 13 9 8 8 8 8 7 7 7 7 6 7 7 7 7 7 6 6 6 6 5 6 5 6 6 5 6 6 4 5 4 4 2 2
18 13 13 18 13 12 12 11 11 15 11 9 9 8 8 7 7 7 6 7 7 7 7 6 6 7 7 6 5 5 6 6 6 6 6 6 6 5 6 6 4 2 3 4
17 17 24 15 10 10 11 10 9 10 9 9 8 7 6 6 7 7 7 7 6 6 6 6 6 6 5 5 6 6 7 7 7 6 7 6 6 6 6 5 3 5 5 5
22 18 16 13 11 13 15 12 9 10 9 8 7 7 7 5 6 6 6 6 7 6 6 6 7 7 7 8 8 8 8 8 8 7 7 7 7 7 6 5 6 6 6 6
17 19 23 14 9 8 9 15 8 8 9 8 8 12 9 5 5 6 6 7 7 7 8 9 8 8 9 10 10 11 11 10 9 9 8 7 7 7 6 7 6 6 6 6
22 19 16 11 9 8 17 15 8 9 8 9 10 9 7 6 6 6 7 8 8 9 10 11 10 10 11 11 11 11 10 9 9 9 9 8 7 6 7 7 7 7 8 8
18 18 20 9 10 13 10 8 8 8 9 9 9 9 8 8 8 9 10 10 11 12 12 11 11 11 11 11 10 10 10 11 10 9 9 8 7 8 7 7 8 9 9 9
15 17 12 9 9 7 7 8 9 9 9 11 11 10 11 12 12 12 12 12 12 12 12 11 11 11 12 11 10 10 11 11 10 9 8 7 7 8 8 8 9 9 10 10
13 12 11 9 8 6 7 9 9 9 10 10 13 12 13 13 13 13 13 13 12 12 13 12 10 10 11 11 11 11 11 10 9 8 7 7 8 8 8 8 10 10 10 11
13 10 9 8 8 8 9 9 10 10 11 12 13 14 13 14 14 13 13 13 12 13 13 12 10 10 10 10 10 10 9 9 9 10 10 11 10 9 9 9 9 9 10 10
13 9 9 10 9 8 10 11 11 12 13 12 13 14 13 13 13 13 13 12 12 13 12 11 10 10 9 9 8 9 10 10 10 10 10 11 11 12 11 10 10 11 11 10
9 7 8 9 9 9 11 11 12 12 13 13 12 12 12 13 13 11 11 12 12 12 12 10 10 10 9 9 9 10 10 11 10 11 11 11 11 12 13 11 10 11 11 11
6 8 10 10 11 10 11 12 12 12 12 12 12 11 11 12 12 12 12 12 11 11 11 10 10 10 10 9 10 10 10 10 11 11 11 11 11 11 10 11 11 11 11 11
7 7 9 9 10 11 11 12 13 13 13 12 11 11 11 12 13 12 11 11 11 11 11 11 11 10 9 9 10 10 10 10 11 11 11 11 10 10 10 10 11 11 12 12
8 8 9 11 11 12 13 13 14 14 13 12 11 11 11 11 11 11 11 11 12 12 11 11 11 10 9 9 10 10 10 11 11 10 10 10 10 10 10 11 11 12 12 13
9 11 11 12 13 13 13 13 13 13 12 12 12 11 11 11 11 12 12 11 11 12 11 11 11 10 10 10 11 11 11 10 10 10 10 10 10 10 11 12 13 14 14 14
9 10 11 12 13 13 13 12 12 12 12 12 11 12 12 12 12 12 12 11 11 11 11 10 10 10 10 10 10 10 10 10 10 10 10 10 11 12 12 13 14 14 14 14
10 11 12 12 13 13 12 12 12 12 12 12 12 13 12 12 11 11 11 12 12 13 11 10 10 10 10 10 10 10 10 10 10 11 11 12 12 12 13 13 13 13 12 13
10 11 12 12 12 12 12 12 12 12 12 12 12 12 12 11 11 12 12 13 12 12 11 11 11 11 11 11 11 10 11 11 11 12 12 13 13 13 13 13 12 13 13 14
11 12 12 12 12 12 12 11 11 12 11 12 12 12 12 12 12 12 13 14 12 11 11 11 11 11 10 11 11 12 12 12 12 12 12 12 12 12 12 12 13 13 14 14
11 12 12 12 12 12 11 11 11 11 12 12 11 11 12 12 12 13 12 12 12 12 11 12 13 14 12 13 12 12 11 11 11 11 11 11 12 12 12 12 13 13 14 14
11 11 11 12 12 12 11 11 11 12 12 12 11 12 13 13 13 14 14 13 13 14 13 13 13 13 13 10 10 10 10 11 11 11 11 11 11 11 12 12 13 13 14 14
11 11 11 11 11 11 12 11 11 11 12 12 12 12 13 14 14 13 13 14 15 13 11 11 12 13 12 10 10 10 10 10 10 10 11 12 10 11 11 12 13 13 13 13
11 11 11 11 12 12 11 11 10 11 12 13 13 13 13 12 12 12 11 11 12 11 11 13 12 12 9 9 9 10 10 10 10 10 10 10 11 11 11 11 12 12 12 12
10 11 10 10 11 11 11 10 9 10 12 13 13 12 11 11 10 10 10 10 9 11 10 9 9 9 9 9 9 9 9 9 9 9 10 10 10 10 11 11 11 11 11 11
10 10 10 11 10 10 10 11 9 10 10 11 11 10 10 10 10 10 10 9 9 9 9 9 9 9 9 8 9 8 8 8 9 9 9 9 9 10 10 10 10 10 10 10